User: anonymous   Login
Location: Mahannah Oil Field
(37.4664°N, 96.6003°W)
Time: 17:49:58
(UTC+00:00)
Language:

deb Explorer IX - Orbit

View from above orbital plane
View from above orbital plane
View from above satellite
View from above satellite

Ground track
Ground track

The orbit data is extracted from the following two-line orbital elements,

1 00085U 61004C   21129.13575970  .00000338  00000-0  91543-4 0  9996
2 00085  38.7729 158.0420 0386829 151.1625 211.1100 14.21661173977447
Epoch (UTC): 09 May 2021 03:15:29
Eccentricity: 0.0386829
inclination: 38.7729°
perigee height: 541 km
apogee height: 1098 km
right ascension of ascending node: 158.0420°
argument of perigee: 151.1625°
revolutions per day: 14.21661173
mean anomaly at epoch: 211.1100°
orbit number at epoch: 97744

The dashed part of the orbit path shows where the satellite is in the earth's shadow,  

DLR